Regional Weather Roundup
Issued by NWS Kansas City/Pleasant Hill, MO

Home | Current Version | Previous Version | Graphics & Text | Print | Product List | Glossary Off
Versions: 1 2 3 4 5 6 7 8 9 10 11 12 13 14 15 16 17 18 19 20 21 22 23 24 25 26 27 28 29 30 31 32 33 34 35 36 37 38 39 40 41 42 43 44 45 46 47 48 49 50

000
ASUS43 KEAX 210210
RWREAX

WEATHER ROUNDUP FOR EASTERN KANSAS AND NORTHWEST MISSOURI
NATIONAL WEATHER SERVICE KANSAS CITY/PLEASANT HILL MO
900 PM CDT SUN AUG 20 2017

KSZ040-057-103>105-MOZ028-029-037-043-210300-
...KANSAS CITY METROPOLITAN AREA...

CITY           SKY/WX    TMP DP  RH WIND       PRES   REMARKS
K.C. INTL      MOCLDY    81  74  79 SE12      29.98R
K.C. DOWNTOWN  MOCLDY    85  76  74 SE9       29.97R HX  94
LEES SUMMIT    PTCLDY    82  74  76 S12       30.00R
OLATHE - IXD   PTCLDY    82  75  79 SE18G26   30.00R
OLATHE - OJC   PTCLDY    81  74  79 S15       30.00R
LAWRENCE       MOCLDY    81  77  88 E7        29.97R

$$

MOZ001>008-011>017-020>025-030>033-038>040-044>046-053-054-210300-
...NORTHERN AND CENTRAL MISSOURI...

CITY           SKY/WX    TMP DP  RH WIND       PRES   REMARKS
ST. JOSEPH     PTCLDY    81  74  79 S6        29.96R
WARRENSBURG    MOCLDY    73  64  73 S6        30.01R
WHITEMAN AFB   PTCLDY    74  70  88 S8        30.02R
CLINTON        CLOUDY    73  66  78 SE10      30.03R
SEDALIA        CLOUDY    76  69  79 S12       30.04R
WARSAW         NOT AVBL
CHILLICOTHE      N/A     76  70  82 E6        30.01R
KIRKSVILLE     PTCLDY    70  66  87 SE5       30.03R

$$

MOZ041-047>049-056>058-063>065-088>090-097-210300-
...EASTERN AND SOUTHERN MISSOURI...

CITY           SKY/WX    TMP DP  RH WIND       PRES   REMARKS
ST. LOUIS INTL CLOUDY    87  72  60 S7        30.01R HX  93
SPIRIT OF STL  CLOUDY    81  73  76 N5        30.00R
COLUMBIA       CLOUDY    80  74  81 S7        30.01S
JEFFERSON CITY CLOUDY    82  76  81 SE5       30.00R
ROLLA          CLOUDY    78  71  79 S8        30.06R
OSAGE BEACH    CLOUDY    80  73  79 SW7       30.07R
SPRINGFIELD    TSTM      70  68  93 N21G36    30.16R VSB 1
BRANSON        MOCLDY    79  72  78 SE9       30.09R
JOPLIN         PTCLDY    85  77  77 E6        30.04R HX  95
WEST PLAINS    CLOUDY    78  73  84 CALM      30.11R

$$

IAZ060-094-KSZ022-034>040-054-083-096-NEZ052-066-093-210300-
...KANSAS...SOUTHEAST NEBRASKA AND IOWA...

CITY           SKY/WX    TMP DP  RH WIND       PRES   REMARKS
TOPEKA         PTCLDY    83  77  82 E10       29.95R HX  92
MANHATTAN      PTCLDY    85  74  69 S5        29.91R HX  92
EMPORIA        PTCLDY    83  72  69 S12       29.95R
CHANUTE        CLEAR     82  70  66 S10       29.99R
WICHITA        CLEAR     86  68  54 S14       29.95R
OMAHA          PTCLDY    77  69  76 E7        29.94S
LINCOLN        PTCLDY    81  71  71 SE9       29.92S
FALLS CITY     CLOUDY    77  72  84 SE7       29.94R
LAMONI         CLEAR     69  65  86 E3        30.01R
DES MOINES     MOCLDY    74  67  78 S5        29.99R

$$




USA.gov is the U.S. government's official web portal to all federal, state and local government web resources and services.